Oakes, ND

2:01 PM CST on November 21, 2019 (GMT -0600)
Oakes

Weather History for K2D5 - September, 2019

Change the Weather History Date:

Wednesday, September 11, 2019

  Actual Average (WUND) Record (WUND)
Temperature  
Mean Temperature 58 °F -  
Max Temperature 64 °F - - (-1)
Min Temperature 51 °F - - (-1)
Degree Days  
Heating Degree Days 8    
Growing Degree Days 8 (Base 50)    
Moisture  
Dew Point 57 °F    
Average Humidity 96    
Maximum Humidity 100    
Minimum Humidity 82    
Precipitation  
Precipitation 0.00 in - - ()
Sea Level Pressure  
Sea Level Pressure 30.08 in    
Wind  
Wind Speed 12 mph (NE)    
Max Wind Speed 20 mph    
Max Gust Speed 26 mph    
Visibility 9 miles    
Events Thunderstorm    
Averages and records for this station are not official NWS values.
T = Trace of Precipitation, MM = Missing Value Source: NWS Daily Summary

Daily Weather History Graph

Daily Weather History Graph

Search for Another Location

Airport or City:

Astronomy

Sep. 11, 2019 Rise Set
Actual Time 7:05 AM CDT 7:51 PM CDT
Civil Twilight 6:34 AM CDT 8:22 PM CDT
Nautical Twilight 5:58 AM CDT 8:58 PM CDT
Astronomical Twilight 5:20 AM CDT 9:35 PM CDT
Moon 7:15 PM CDT (9/11) 4:16 AM CDT (9/11)
Length of Visible Light 13h 47m
Length of Day
12h 46m
Waxing Gibbous, 95% of the Moon is Illuminated
Sep 11
Waxing Gibbous
Sep 13
Full
Sep 21
Last Quarter
Sep 28
New
Oct 5
First Quarter

Hourly Weather History & Observations

Time (CDT) Temp. Dew Point Humidity Pressure Visibility Wind Dir Wind Speed Gust Speed Precip Events Conditions
12:15 AM 57.2 °F 57.2 °F 100% 30.08 in 10.0 mi East 13.8 mph - N/A   Overcast
12:35 AM 57.2 °F 57.2 °F 100% 30.07 in 10.0 mi ENE 13.8 mph - N/A   Overcast
12:55 AM 57.2 °F 57.2 °F 100% 30.06 in 10.0 mi ENE 11.5 mph 17.3 mph N/A   Overcast
1:15 AM 57.2 °F 57.2 °F 100% 30.05 in 10.0 mi ENE 11.5 mph - N/A   Overcast
1:35 AM 55.4 °F 55.4 °F 100% 30.05 in 10.0 mi ENE 9.2 mph - N/A   Overcast
1:55 AM 55.4 °F 55.4 °F 100% 30.04 in 10.0 mi NE 10.4 mph - N/A   Overcast
2:15 AM 55.4 °F 55.4 °F 100% 30.04 in 10.0 mi NE 11.5 mph - N/A   Overcast
2:35 AM 55.4 °F 55.4 °F 100% 30.03 in 10.0 mi NE 10.4 mph - N/A   Overcast
2:55 AM 55.4 °F 55.4 °F 100% 30.05 in 10.0 mi NE 8.1 mph - N/A   Overcast
3:15 AM 55.4 °F 55.4 °F 100% 30.06 in 10.0 mi NE 9.2 mph - N/A   Overcast
3:35 AM 55.4 °F 55.4 °F 100% 30.06 in 10.0 mi NE 9.2 mph - N/A   Overcast
3:55 AM 55.4 °F 55.4 °F 100% 30.05 in 10.0 mi NE 9.2 mph - N/A   Overcast
4:35 AM 53.6 °F 53.6 °F 100% 30.06 in 10.0 mi NE 9.2 mph - N/A   Partly Cloudy
4:55 AM 53.6 °F 53.6 °F 100% 30.06 in 10.0 mi NE 9.2 mph - N/A   Clear
5:15 AM 53.6 °F 53.6 °F 100% 30.06 in 10.0 mi NE 9.2 mph - N/A   Clear
5:35 AM 53.6 °F 53.6 °F 100% 30.08 in 10.0 mi NE 6.9 mph 12.7 mph N/A   Partly Cloudy
5:55 AM 53.6 °F 53.6 °F 100% 30.09 in 10.0 mi NNE 4.6 mph - N/A   Mostly Cloudy
6:15 AM 53.6 °F 53.6 °F 100% 30.09 in 9.0 mi NNE 6.9 mph - N/A   Mostly Cloudy
6:35 AM 51.8 °F 51.8 °F 100% 30.09 in 9.0 mi NNE 5.8 mph - N/A   Partly Cloudy
6:55 AM 51.8 °F 51.8 °F 100% 30.10 in 9.0 mi NNE 6.9 mph - N/A   Scattered Clouds
7:15 AM 53.6 °F 53.6 °F 100% 30.10 in 9.0 mi NNE 8.1 mph - N/A   Overcast
7:35 AM 53.6 °F 53.6 °F 100% 30.10 in 9.0 mi NNE 8.1 mph - N/A   Overcast
7:55 AM 53.6 °F 53.6 °F 100% 30.09 in 9.0 mi NNE 9.2 mph - N/A   Overcast
8:15 AM 53.6 °F 53.6 °F 100% 30.08 in 9.0 mi NE 9.2 mph - N/A   Overcast
8:35 AM 55.4 °F 55.4 °F 100% 30.08 in 9.0 mi NE 11.5 mph - N/A   Overcast
8:55 AM 55.4 °F 55.4 °F 100% 30.09 in 10.0 mi NE 11.5 mph - N/A   Overcast
9:15 AM 57.2 °F 57.2 °F 100% 30.09 in 10.0 mi NE 13.8 mph - N/A   Overcast
9:35 AM 57.2 °F 57.2 °F 100% 30.09 in 10.0 mi NE 13.8 mph - N/A   Overcast
9:55 AM 57.2 °F 57.2 °F 100% 30.10 in 10.0 mi NE 13.8 mph - N/A   Overcast
10:15 AM 59.0 °F 59.0 °F 100% 30.09 in 10.0 mi NE 16.1 mph - N/A   Overcast
10:35 AM 59.0 °F 59.0 °F 100% 30.09 in 10.0 mi NE 12.7 mph 19.6 mph N/A   Overcast
10:55 AM 60.8 °F 59.0 °F 94% 30.10 in 10.0 mi NE 12.7 mph - N/A   Overcast
11:15 AM 60.8 °F 59.0 °F 94% 30.10 in 10.0 mi NE 12.7 mph - N/A   Overcast
11:35 AM 59.0 °F 59.0 °F 100% 30.11 in 10.0 mi NE 12.7 mph - N/A   Overcast
11:55 AM 60.8 °F 59.0 °F 94% 30.10 in 10.0 mi NNE 12.7 mph - N/A   Overcast
12:15 PM 60.8 °F 59.0 °F 94% 30.09 in 10.0 mi NE 16.1 mph - N/A   Overcast
12:35 PM 62.6 °F 59.0 °F 88% 30.10 in 10.0 mi NE 12.7 mph - N/A   Overcast
12:55 PM 62.6 °F 59.0 °F 88% 30.11 in 10.0 mi NE 9.2 mph 18.4 mph N/A   Overcast
1:35 PM 62.6 °F 57.2 °F 82% 30.11 in 10.0 mi NE 10.4 mph 17.3 mph N/A   Overcast
1:55 PM 62.6 °F 59.0 °F 88% 30.12 in 10.0 mi NE 9.2 mph 15.0 mph N/A   Overcast
2:15 PM 64.4 °F 59.0 °F 83% 30.11 in 10.0 mi ENE 13.8 mph - N/A   Overcast
2:35 PM 64.4 °F 59.0 °F 83% 30.11 in 10.0 mi NE 11.5 mph 17.3 mph N/A   Overcast
2:55 PM 64.4 °F 59.0 °F 83% 30.12 in 10.0 mi NE 11.5 mph - N/A   Overcast
3:15 PM 64.4 °F 59.0 °F 83% 30.10 in 10.0 mi ENE 12.7 mph - N/A   Overcast
3:35 PM 62.6 °F 59.0 °F 88% 30.11 in 10.0 mi ENE 13.8 mph - N/A   Overcast
3:55 PM 62.6 °F 59.0 °F 88% 30.11 in 10.0 mi NE 12.7 mph - N/A   Overcast
4:15 PM 64.4 °F 59.0 °F 83% 30.09 in 10.0 mi NE 11.5 mph 17.3 mph N/A   Overcast
4:35 PM 62.6 °F 59.0 °F 88% 30.09 in 10.0 mi NE 12.7 mph - N/A   Overcast
4:55 PM 62.6 °F 59.0 °F 88% 30.09 in 10.0 mi NE 12.7 mph - N/A   Overcast
5:15 PM 62.6 °F 59.0 °F 88% 30.09 in 10.0 mi NNE 12.7 mph - N/A   Overcast
5:35 PM 62.6 °F 59.0 °F 88% 30.08 in 10.0 mi NNE 15.0 mph 20.7 mph N/A   Overcast
5:55 PM 62.6 °F 59.0 °F 88% 30.08 in 10.0 mi NNE 12.7 mph 20.7 mph N/A   Overcast
6:15 PM 62.6 °F 59.0 °F 88% 30.08 in 10.0 mi NE 11.5 mph - N/A   Overcast
6:35 PM 62.6 °F 60.8 °F 94% 30.07 in 10.0 mi NE 13.8 mph - N/A   Overcast
6:55 PM 60.8 °F 60.8 °F 100% 30.07 in 10.0 mi NE 11.5 mph 18.4 mph N/A   Overcast
7:15 PM 60.8 °F 60.8 °F 100% 30.07 in 10.0 mi NE 13.8 mph 20.7 mph N/A   Overcast
7:35 PM 60.8 °F 60.8 °F 100% 30.07 in 10.0 mi NE 11.5 mph 18.4 mph N/A   Overcast
7:55 PM 60.8 °F 60.8 °F 100% 30.06 in 10.0 mi NE 16.1 mph - N/A   Overcast
8:15 PM 60.8 °F 60.8 °F 100% 30.07 in 10.0 mi NE 15.0 mph 20.7 mph N/A   Overcast
8:35 PM 60.8 °F 60.8 °F 100% 30.06 in 10.0 mi NE 13.8 mph 20.7 mph N/A   Overcast
8:55 PM 60.8 °F 60.8 °F 100% 30.07 in 10.0 mi NE 10.4 mph 18.4 mph N/A   Overcast
9:15 PM - - N/A% 30.05 in 10.0 mi ENE 11.5 mph - N/A   Overcast
9:35 PM 60.8 °F 60.8 °F 100% 30.03 in 10.0 mi ENE 15.0 mph 21.9 mph N/A   Overcast
9:55 PM 60.8 °F 60.8 °F 100% 30.03 in 10.0 mi ENE 19.6 mph - N/A   Overcast
10:15 PM 59.0 °F 59.0 °F 100% 30.05 in 9.0 mi ENE 19.6 mph 26.5 mph N/A   Overcast
10:35 PM 59.0 °F 59.0 °F 100% 30.04 in 2.0 mi ENE 19.6 mph - N/A   Overcast
10:55 PM 57.2 °F 57.2 °F 100% 30.03 in 2.0 mi ENE 17.3 mph - N/A   Overcast
11:15 PM 57.2 °F 57.2 °F 100% 30.03 in 1.8 mi ENE 17.3 mph 23.0 mph N/A Thunderstorm Overcast
11:35 PM 57.2 °F 57.2 °F 100% 30.03 in 2.5 mi ENE 12.7 mph 23.0 mph N/A Thunderstorm Thunderstorm
11:55 PM 57.2 °F 57.2 °F 100% 30.09 in 10.0 mi East 5.8 mph 13.8 mph N/A   Overcast